User: anonymous   Login
Location: San Francisco
(37.7750°N, 122.4180°W)
Time: 04:47:12
(UTC-07:00)
Language:

GP-B - Orbit

View from above orbital plane
View from above orbital plane
View from above satellite
View from above satellite

Ground track
Ground track

The orbit data is extracted from the following two-line orbital elements,

1 28230U 04014A   17082.81685494 +.00000153 +00000-0 +18688-4 0  9991
2 28230 089.8470 123.6712 0003351 095.1259 265.0346 14.78519972153680
Epoch (UTC): 23 March 2017 19:36:16
Eccentricity: 0.0003351
inclination: 89.8470°
perigee height: 631 km
apogee height: 636 km
right ascension of ascending node: 123.6712°
argument of perigee: 95.1259°
revolutions per day: 14.78519972
mean anomaly at epoch: 265.0346°
orbit number at epoch: 15368

The dashed part of the orbit path shows where the satellite is in the earth's shadow,  

DLR